Torna al catalogo

STARLINK-11537

AttivoComunicazioniVLEO
NORAD 62911·PAYLOAD·🇺🇸 United States

Lanciato Feb 8, 2025 da Cape Canaveral Space Force Station

Loading…

Prossimi Passaggi (prossime 24 ore)

TLE

AggiornatoSource: CelesTrak SupGP

Epoca: Sep 15, 2026, 02:37 UTC

1 62911C 25027E   26258.10951389  .00067555  00000+0  52462-3 0  2581
2 62911  43.0002 285.9361 0001404 259.6583  62.4655 15.70809090    19

Traccia STARLINK-11537 in tempo reale con AllMySat

Download on the App Store